#timestamp,LO_Frequency,Hit,StdDev 
1655265615.7,286047000.1,N
1655265635.5,286047000.6,N
1655265655.3,286047000.6,N
1655265675.2,286047000.0,N
1655265695.0,286047000.9,N
1655265695.9,286047000.9,N
1655265715.7,286047000.9,N
1655265735.6,286047000.7,N
1655265755.4,286047000.0,N
1655265775.3,286047001.0,N
1655265795.1,286046998.6,N
1655265796.0,286046998.6,N
1655265815.8,286047000.7,N
1655265835.7,286047000.2,N
1655265855.5,286047002.7,N
1655265875.3,286047002.8,N
1655265895.2,286047000.4,N
1655265915.0,286047000.9,N
1655265915.9,286047000.9,N
1655265935.8,286046998.1,N
1655265955.6,286047000.9,N
1655265975.4,286047000.0,N
1655265995.3,286047000.7,N
1655266015.1,286047000.4,N
1655266035.8,286047000.6,N
1655266055.7,286046998.2,N
1655266075.5,286046998.7,N
1655266095.4,286046998.2,N
1655266115.2,286047001.2,N
1655266135.0,286046998.3,N
1655266135.9,286046998.3,N
1655266155.8,286046998.6,N
1655266175.6,286046998.2,N
1655266195.5,286046998.6,N
1655266215.3,286046998.2,N
1655266235.1,286046998.1,N
1655266255.9,286046998.5,N
1655266275.7,286047000.8,N
1655266295.5,286047000.3,N
1655266315.4,286047000.4,N
1655266335.2,286046999.8,N
1655266355.1,286047000.8,N
1655266356.0,286047000.8,N
1655266375.8,286047000.3,N
1655266395.6,286046999.9,N
1655266415.5,286047000.9,N
1655266435.3,286047000.8,N
1655266455.1,286047000.4,N
1655266475.9,286047000.7,N
1655266495.7,286047001.2,N
1655266515.6,286046998.2,N
1655266535.4,286046999.9,N
1655266555.2,286046998.5,N
1655266575.1,286047001.1,N
1655266576.0,286047001.1,N
1655266595.8,286047001.2,N
1655266615.7,286046998.6,N
1655266635.5,286046998.1,N
1655266655.3,286046998.6,N
1655266675.2,286046998.6,N
1655266695.0,286046998.2,N
1655266695.9,286046998.2,N
1655266715.8,286047001.2,N
1655266735.6,286047000.5,N
1655266755.4,286046998.7,N
1655266775.3,286047001.2,N
1655266795.1,286046998.9,N
1655266815.8,286046999.5,N
1655266835.7,286046998.9,N
1655266855.5,286046996.5,Y
1655266875.4,286046998.5,P
1655266895.2,286046998.5,N
1655266915.0,286046998.7,N
1655266915.9,286046998.7,N
1655266935.8,286046998.3,Y
1655266955.6,286046998.7,P
1655266975.5,286047000.8,P
1655266995.3,286047001.1,N
1655267015.1,286046998.2,N
1655267035.9,286047001.0,N
1655267055.7,286046998.1,N
1655267075.6,286046998.6,N
1655267095.4,286047000.5,N
1655267115.2,286047000.9,N
1655267135.1,286047002.7,N
1655267136.0,286047002.7,N
1655267155.8,286047002.0,N
1655267175.6,286047002.0,N
1655267195.5,286047001.8,N
1655267215.3,286047001.3,N
1655267235.2,286047001.4,N
1655267255.9,286047003.9,N
1655267275.7,286047001.3,N
1655267295.6,286047003.5,N
1655267315.4,286047001.3,N
1655267335.2,286047001.4,N
1655267355.1,286047004.4,N
1655267356.0,286047004.4,N
1655267375.8,286047004.2,N
1655267395.7,286047001.4,N
1655267415.5,286047001.7,N
1655267435.3,286047001.3,N
1655267455.2,286047003.2,N
1655267475.0,286047003.1,N
1655267475.9,286047003.1,N
1655267495.8,286047003.4,N
1655267515.6,286047003.2,N
1655267535.4,286047003.6,N
1655267555.3,286047003.8,N
1655267575.1,286047003.6,N
1655267595.8,286047003.9,N
1655267615.7,286047006.0,Y
1655267635.5,286047002.7,P
1655267655.4,286047002.5,P
1655267675.2,286047003.9,P
1655267695.0,286047003.4,Y
1655267695.9,286047003.4,P
1655267715.8,286047000.1,N
1655267735.6,286047000.2,N
1655267755.5,286047000.2,N
1655267775.3,286046999.9,N
1655267795.1,286047000.5,N
1655267815.9,286046999.9,N
1655267835.7,286047000.0,N
1655267855.6,286047000.2,N
1655267875.4,286047000.1,N
1655267895.2,286046999.7,N
1655267915.1,286047000.1,N
1655267916.0,286047000.1,N
1655267935.8,286046999.8,N
1655267955.6,286046999.9,N
1655267975.5,286047002.2,N
1655267995.3,286047002.4,N
1655268015.2,286047002.8,N
1655268035.9,286047000.1,N
1655268055.7,286046999.8,N
1655268075.6,286046999.7,N
1655268095.4,286047000.1,N
1655268115.2,286047002.5,N
1655268135.1,286047002.6,N
1655268136.0,286047002.6,N
1655268155.8,286047002.1,N
1655268175.7,286047002.1,N
1655268195.5,286047001.9,N
1655268215.3,286047001.8,N
1655268235.2,286047001.8,N
1655268255.0,286047002.6,N
1655268255.9,286047002.6,N
1655268275.7,286047002.5,N
1655268295.6,286046999.7,N
1655268315.4,286047002.7,N
1655268335.3,286046998.1,N
1655268355.1,286047000.4,N
1655268375.8,286047002.8,N
1655268395.7,286046999.8,N
1655268415.5,286046998.4,N
1655268435.4,286046998.6,N
1655268455.2,286047001.2,N
1655268475.0,286046999.7,N
1655268475.9,286046999.7,N
1655268495.8,286047001.5,N
1655268515.6,286047002.5,N
1655268535.4,286047002.3,N
1655268555.3,286047004.2,N
1655268575.1,286047001.4,N
1655268595.9,286047004.2,N
1655268615.7,286047004.2,N
1655268635.5,286047001.7,N
1655268655.4,286047004.4,N
1655268675.2,286047003.2,N
1655268695.0,286047003.1,N
1655268696.0,286047003.1,N
1655268715.8,286047003.6,N
1655268735.6,286047003.3,N
1655268755.5,286047005.8,Y
1655268775.3,286047001.4,P
1655268795.2,286047004.4,P
1655268815.9,286047004.0,N
1655268835.7,286047003.3,N
1655268855.6,286047003.9,Y
1655268875.4,286047000.7,P
1655268895.2,286046998.4,N
1655268915.1,286046996.5,N
1655268946.0,286046998.9,E
1655268955.0,286046998.7,N
1655268955.9,286046998.7,P
1655268975.8,286047001.0,P
1655268995.6,286047000.6,N
1655269015.5,286047000.3,N
1655269035.3,286047000.5,N
1655269055.1,286047000.2,N
1655269075.9,286047000.6,N
1655269095.7,286047002.7,Y
1655269115.5,286046999.9,P
1655269135.4,286047002.7,P
1655269155.2,286047000.1,N
1655269175.1,286047000.1,N
1655269176.0,286047000.1,N
1655269195.8,286047002.8,N
